Location: Peterborough
(44.3091°N, 78.3197°W)
Time: 16:28:21
(UTC-04:00)

Transit 2A Rocket - Pass Details

Date: 31 March 2023
Orbit: 584 x 914 km, 66.7° (Epoch: 04 June)

Event Time Altitude Azimuth Distance (km) Brightness Sun altitude
Rises 13:28:19 0° 274° (W) 3,390 8.4 49.9°
Reaches altitude 10° 13:31:56 10° 297° (WNW) 2,516 7.6 49.8°
Maximum altitude 13:35:10 15° 331° (NNW) 2,222 7.2 49.8°
Drops below altitude 10° 13:38:31 10° 5° (N) 2,592 7.5 49.7°
Sets 13:42:21 0° 28° (NNE) 3,555 8.1 49.6°
